Location: Fort Wayne
(41.1310°N, 85.1290°W)
Time: 02:20:20
(UTC-05:00)

Amateur Radio Satellites - All Passes

Search period start: 02 March 2015 01:50
Search period end: 03 March 2015 01:50
Location: Fort Wayne, 41.1310°N, 85.1290°W

Satellite Date Start Highest point End Downlink Frequencies (MHz)
Time Altitude Azimuth
ITUPSAT 1 02 Mar 01:52:42 01:57:22 52° 260° (W) 02:02:04 437.325
KKS-1 02 Mar 01:52:48 01:56:43 31° 70° (ENE) 02:00:42 437.445
DANDE 02 Mar 01:53:16 01:59:16 31° 285° (WNW) 02:03:55 436.750
STARS 02 Mar 02:01:39 02:05:15 25° 68° (ENE) 02:08:56 437.465
YUBILEINY 02 Mar 02:05:26 02:10:36 17° 58° (ENE) 02:16:15 435.215
SO-50 02 Mar 02:09:51 02:14:17 52° 118° (ESE) 02:18:55 436.795
BEESAT 3 02 Mar 02:14:23 02:18:09 34° 50° (NE) 02:21:55 437.485
ITAMSAT 1 02 Mar 02:17:09 02:21:30 27° 94° (E) 02:25:55 435.822/435.867
Oscar 19 02 Mar 02:20:20 02:25:28 87° 100° (E) 02:30:37 437.125/150
AIST 2 02 Mar 02:31:39 02:34:49 20° 44° (NE) 02:38:02 435.215
CUSAT 1 02 Mar 02:33:16 02:34:49 11° 292° (WNW) 02:35:55 437.405
BEESAT 2 02 Mar 02:38:44 02:42:48 50° 53° (NE) 02:46:49 435.950
RS-15 02 Mar 02:44:03 02:53:31 31° 330° (NNW) 03:03:01 29.354- 29.394
M-CUBED/EXP-1 PRIME 02 Mar 02:56:05 02:57:19 12° 60° (ENE) 02:58:42 437.505
SWISSCUBE 02 Mar 02:58:43 03:00:14 11° 273° (W) 03:01:27 437.505
AUBIESAT-1 02 Mar 02:58:59 03:00:02 11° 60° (ENE) 03:01:14 437.475
Gurwin Techsat 1B 02 Mar 03:23:08 03:28:30 84° 103° (ESE) 03:33:50 435.225
KKS-1 02 Mar 03:29:42 03:33:25 25° 266° (W) 03:37:04 437.445
STARS 02 Mar 03:37:42 03:41:38 30° 264° (W) 03:45:32 437.465
HORYU 2 02 Mar 03:46:40 03:50:49 38° 98° (E) 03:54:59 437.375
SO-50 02 Mar 03:51:29 03:55:11 22° 318° (NW) 03:58:54 436.795
BEESAT 3 02 Mar 03:52:48 03:56:07 23° 247° (WSW) 03:59:19 437.485
ITAMSAT 1 02 Mar 03:56:19 04:01:07 37° 291° (WNW) 04:05:51 435.822/435.867
YUBILEINY 02 Mar 04:00:15 04:09:09 82° 81° (E) 04:18:00 435.215
Oscar 19 02 Mar 04:02:01 04:04:12 12° 299° (WNW) 04:06:07 437.125/150
AIST 2 02 Mar 04:09:35 04:13:42 48° 242° (WSW) 04:17:44 435.215
JAS-2 02 Mar 04:13:14 04:19:41 32° 93° (E) 04:26:35 435.910
BEESAT 2 02 Mar 04:18:09 04:20:38 15° 249° (WSW) 04:22:56 435.950
AO-7 02 Mar 04:27:04 04:35:02 49° 100° (E) 04:43:00 29.400- 29.500
M-CUBED/EXP-1 PRIME 02 Mar 04:28:51 04:31:58 39° 257° (WSW) 04:35:11 437.505
PCSat 02 Mar 04:29:34 04:30:59 11° 34° (NE) 04:32:38 145.827
AUBIESAT-1 02 Mar 04:31:28 04:34:36 41° 256° (WSW) 04:37:50 437.475
MOZHAYETS 4 02 Mar 04:34:04 04:38:37 76° 75° (ENE) 04:43:12
CUBESAT XI-V 02 Mar 04:57:29 04:58:40 11° 62° (ENE) 05:00:07 437.345
RS-15 02 Mar 05:03:01 05:10:48 21° 4° (N) 05:18:50 29.354- 29.394
Gurwin Techsat 1B 02 Mar 05:05:12 05:07:51 14° 299° (WNW) 05:10:14 435.225
HORYU 2 02 Mar 05:23:56 05:27:16 21° 293° (WNW) 05:30:30 437.375
Cubesat XI-IV 02 Mar 05:39:45 05:41:45 12° 87° (E) 05:44:05 437.490
CUTE-I 02 Mar 05:48:13 05:51:07 15° 89° (E) 05:54:16 437.470
PRISM 02 Mar 05:57:33 06:01:30 45° 72° (ENE) 06:05:31 437.425
JAS-2 02 Mar 05:57:47 06:04:58 55° 289° (WNW) 06:12:31 435.910
YUBILEINY 02 Mar 05:58:52 06:05:02 21° 280° (W) 06:10:46 435.215
PCSat 02 Mar 06:10:25 06:15:45 55° 56° (NE) 06:21:04 145.827
MOZHAYETS 4 02 Mar 06:16:01 06:16:31 10° 274° (W) 06:16:42
STRAND 1 02 Mar 06:19:18 06:24:13 49° 71° (ENE) 06:29:12 437.568
AO-7 02 Mar 06:20:10 06:27:43 39° 299° (WNW) 06:35:07 29.400- 29.500
CUBESAT XI-V 02 Mar 06:30:48 06:35:30 85° 260° (W) 06:40:14 437.345
Cubesat XI-IV 02 Mar 07:17:13 07:22:37 81° 286° (WNW) 07:27:58 437.490
RS-15 02 Mar 07:17:24 07:27:39 38° 37° (NE) 07:38:29 29.354- 29.394
AIST 1 02 Mar 07:19:41 07:23:40 37° 92° (E) 07:27:45
CUTE-I 02 Mar 07:26:27 07:31:48 68° 287° (WNW) 07:37:06 437.470
PRISM 02 Mar 07:34:57 07:37:20 14° 270° (W) 07:39:32 437.425
JAS-2 02 Mar 07:46:31 07:48:47 11° 306° (NW) 07:50:37 435.910
PCSat 02 Mar 07:54:46 07:58:49 21° 253° (WSW) 08:02:41 145.827
STRAND 1 02 Mar 07:59:56 08:03:45 20° 269° (W) 08:07:25 437.568
BRITE-PL 02 Mar 08:11:33 08:14:13 16° 88° (E) 08:16:57 437.365/2234.400
GONETS M04 02 Mar 08:13:11 08:19:54 25° 64° (ENE) 08:26:57
GOMX 1 02 Mar 08:20:21 08:21:54 12° 87° (E) 08:23:41 467.674
HO-68 02 Mar 08:22:16 08:27:30 22° 91° (E) 08:32:59 435.675
ISS 02 Mar 08:27:29 08:28:21 11° 130° (SE) 08:29:20 145.825
SEEDS 02 Mar 08:36:30 08:38:47 15° 90° (E) 08:41:15 437.485
CANX-2 02 Mar 08:38:06 08:41:13 20° 92° (E) 08:44:26 2200.000
O/OREOS (USA 219) 02 Mar 08:52:50 08:55:26 16° 101° (E) 08:58:15 437.305
CUTE 1.7 + AOD 2 02 Mar 08:56:21 09:00:03 29° 95° (E) 09:03:48 437.475
DOVE 4 02 Mar 08:56:42 08:59:52 21° 92° (E) 09:03:04 437.250
AIST 1 02 Mar 08:58:27 09:01:33 18° 290° (WNW) 09:04:33
Cubesat XI-IV 02 Mar 09:00:09 09:01:57 11° 301° (WNW) 09:03:28 437.490
SO-50 02 Mar 09:03:31 09:04:15 10° 30° (NNE) 09:05:10 436.795
CINEMA 3 02 Mar 09:09:39 09:11:57 15° 90° (E) 09:14:25 145.822/145.860
DELFI C3 02 Mar 09:20:14 09:21:23 11° 88° (E) 09:22:46 145.870
RS-15 02 Mar 09:29:47 09:41:13 76° 242° (WSW) 09:53:08 29.354- 29.394
Oscar 11 02 Mar 09:30:58 09:34:10 21° 93° (E) 09:37:28 145.826/435.025
NANOSAT C BR1 02 Mar 09:33:41 09:35:07 12° 64° (ENE) 09:36:46 145.865
CUBEBUG 2 02 Mar 09:34:02 09:36:25 15° 91° (E) 09:38:59 437.445
UNISAT 6 02 Mar 09:38:00 09:41:28 24° 69° (ENE) 09:44:59 437.425
AAUSAT CUBESAT 2 02 Mar 09:42:02 09:46:11 58° 100° (E) 09:50:20 437.432
COMPASS 1 02 Mar 09:44:08 09:48:21 71° 102° (ESE) 09:52:33 437.405
BRITE-PL 02 Mar 09:48:47 09:53:11 45° 288° (WNW) 09:57:16 437.365/2234.400
DX 1 02 Mar 09:54:36 09:57:25 17° 92° (E) 10:00:22 434.975-435.025
GOMX 1 02 Mar 09:56:18 10:00:38 55° 286° (WNW) 10:04:44 467.674
ISS 02 Mar 10:01:10 10:04:23 80° 323° (NW) 10:07:37 145.825
TIGRISAT 02 Mar 10:02:37 10:06:45 41° 72° (ENE) 10:10:52 435.000
QB50P1 02 Mar 10:04:08 10:07:35 25° 69° (ENE) 10:11:08 145.935-145.965
QB50P2 02 Mar 10:07:37 10:11:13 27° 69° (ENE) 10:14:54 145.880/145.840
HO-68 02 Mar 10:08:45 10:15:54 69° 289° (WNW) 10:23:01 435.675
GONETS M04 02 Mar 10:09:01 10:17:43 72° 266° (W) 10:26:26
SEEDS 02 Mar 10:10:51 10:14:55 46° 287° (WNW) 10:18:58 437.485
CANX-2 02 Mar 10:13:25 10:17:17 34° 289° (WNW) 10:21:06 2200.000
FUNcube-1 02 Mar 10:14:09 10:17:45 29° 95° (E) 10:21:25 145.935
ZACube-1 02 Mar 10:15:10 10:18:50 30° 96° (E) 10:22:32 437.345
ANTELSAT 02 Mar 10:15:41 10:20:02 60° 74° (ENE) 10:24:19 437.575/2403.000
BUGSAT 1 02 Mar 10:17:13 10:20:43 26° 69° (ENE) 10:24:18 437.445
DUCHIFAT 1 02 Mar 10:22:47 10:26:44 38° 72° (ENE) 10:30:44 145.980
HUMSAT D 02 Mar 10:23:08 10:26:03 19° 93° (E) 10:29:05 437.325/437.525
UKube-1 02 Mar 10:24:00 10:27:57 34° 97° (E) 10:31:55 .
50 SAT 02 Mar 10:26:23 10:28:21 14° 90° (E) 10:30:30 437.505
O/OREOS (USA 219) 02 Mar 10:30:03 10:34:29 50° 296° (WNW) 10:38:58 437.305
CUTE 1.7 + AOD 2 02 Mar 10:32:27 10:35:54 24° 291° (WNW) 10:39:17 437.475
UWE-3 02 Mar 10:32:50 10:36:57 60° 100° (E) 10:41:05 435.000/436.395/437.385
DOVE 4 02 Mar 10:33:59 10:37:48 31° 290° (WNW) 10:41:27 437.250
SO-50 02 Mar 10:41:17 10:46:04 49° 52° (NE) 10:50:51 436.795
POLYITAN 1 02 Mar 10:42:04 10:46:19 66° 75° (ENE) 10:50:35 437.675
POPSAT HIP 1 02 Mar 10:42:50 10:47:06 66° 74° (ENE) 10:51:22 437.405
CINEMA 3 02 Mar 10:45:31 10:49:30 42° 287° (WNW) 10:53:25 145.822/145.860
DELFI C3 02 Mar 10:53:00 10:57:02 57° 285° (WNW) 11:01:02 145.870
DANDE 02 Mar 10:54:47 10:54:57 10° 67° (ENE) 10:55:14 436.750
NANOSAT C BR1 02 Mar 11:06:14 11:10:30 68° 259° (WSW) 11:14:47 145.865
Oscar 11 02 Mar 11:06:31 11:10:28 34° 289° (WNW) 11:14:22 145.826/435.025
CUBEBUG 2 02 Mar 11:09:29 11:13:26 41° 287° (WNW) 11:17:19 437.445
UNISAT 6 02 Mar 11:14:13 11:18:10 31° 264° (W) 11:22:02 437.425
AAUSAT CUBESAT 2 02 Mar 11:19:27 11:21:25 13° 295° (WNW) 11:23:11 437.432
COMPASS 1 02 Mar 11:22:29 11:23:33 11° 296° (WNW) 11:24:23 437.405
CUSAT 1 02 Mar 11:25:16 11:27:49 45° 78° (ENE) 11:30:22 437.405
DX 1 02 Mar 11:29:46 11:33:56 42° 288° (WNW) 11:38:01 434.975-435.025
AISAT 02 Mar 11:30:36 11:35:04 81° 103° (ESE) 11:39:29 437.250
CUBEBUG 1 02 Mar 11:35:58 11:40:06 38° 97° (E) 11:44:12 437.445
ISS 02 Mar 11:38:53 11:41:14 18° 343° (NNW) 11:43:34 145.825
QB50P1 02 Mar 11:39:38 11:43:24 28° 264° (W) 11:47:07 145.935-145.965
VELOX 1 02 Mar 11:40:21 11:44:50 82° 284° (WNW) 11:49:15 145.980
TIGRISAT 02 Mar 11:40:45 11:43:45 17° 268° (W) 11:46:35 435.000
QB50P2 02 Mar 11:43:29 11:47:07 26° 265° (W) 11:50:41 145.880/145.840
RS-15 02 Mar 11:45:07 11:52:09 17° 259° (W) 11:58:25 29.354- 29.394
FUNcube-1 02 Mar 11:50:44 11:54:01 23° 291° (WNW) 11:57:14 145.935
ZACube-1 02 Mar 11:51:51 11:55:06 22° 291° (WNW) 11:58:15 437.345
BUGSAT 1 02 Mar 11:52:26 11:56:09 27° 265° (W) 11:59:48 437.445
ESTCUBE 1 02 Mar 11:54:04 11:58:38 68° 102° (ESE) 12:03:09 437.505/2401.250
ANTELSAT 02 Mar 11:55:27 11:57:17 12° 271° (W) 11:58:52 437.575/2403.000
HUMSAT D 02 Mar 11:58:15 12:01:58 33° 289° (WNW) 12:05:39 437.325/437.525
HO-68 02 Mar 11:58:58 12:02:30 14° 307° (NW) 12:05:39 435.675
DUCHIFAT 1 02 Mar 11:59:44 12:02:46 18° 268° (W) 12:05:41 145.980
50 SAT 02 Mar 11:59:53 12:03:39 42° 287° (WNW) 12:07:23 437.505
Oscar 19 02 Mar 12:00:25 12:03:24 16° 63° (ENE) 12:06:34 437.125/150
UKube-1 02 Mar 12:00:34 12:03:57 22° 293° (WNW) 12:07:13 .
GONETS M04 02 Mar 12:09:30 12:13:12 13° 284° (WNW) 12:16:12
SPROUT 02 Mar 12:10:26 12:13:49 23° 94° (E) 12:17:15 437.525
UWE-3 02 Mar 12:11:25 12:13:05 12° 296° (WNW) 12:14:33 435.000/436.395/437.385
TISAT 1 02 Mar 12:15:59 12:19:19 23° 94° (E) 12:22:43 437.305
POLYITAN 1 02 Mar 12:21:42 12:22:47 11° 272° (W) 12:23:36 437.675
POPSAT HIP 1 02 Mar 12:22:26 12:23:31 11° 272° (W) 12:24:19 437.405
SO-50 02 Mar 12:22:32 12:26:21 22° 248° (WSW) 12:30:03 436.795
DANDE 02 Mar 12:36:41 12:38:20 15° 268° (W) 12:39:54 436.750
Gurwin Techsat 1B 02 Mar 13:06:40 13:10:01 18° 63° (ENE) 13:13:34 435.225
AISAT 02 Mar 13:10:01 13:11:06 11° 298° (WNW) 13:11:56 437.250
CUBEBUG 1 02 Mar 13:12:58 13:16:15 20° 293° (WNW) 13:19:23 437.445
ISS 02 Mar 13:17:00 13:18:36 13° 3° (N) 13:20:14 145.825
SWISSCUBE 02 Mar 13:18:24 13:21:49 20° 92° (E) 13:25:22 437.505
BEESAT 02 Mar 13:26:55 13:30:34 22° 93° (E) 13:34:21 436.000
ESTCUBE 1 02 Mar 13:32:50 13:35:01 13° 297° (WNW) 13:36:59 437.505/2401.250
ITAMSAT 1 02 Mar 13:34:54 13:39:44 41° 70° (ENE) 13:44:40 435.822/435.867
Oscar 19 02 Mar 13:37:10 13:42:17 66° 259° (W) 13:47:24 437.125/150
AO-7 02 Mar 13:38:18 13:42:27 15° 48° (NE) 13:46:59 29.400- 29.500
SPROUT 02 Mar 13:46:09 13:49:58 30° 290° (WNW) 13:53:41 437.525
TISAT 1 02 Mar 13:51:28 13:55:11 29° 290° (WNW) 13:58:47 437.305
ITUPSAT 1 02 Mar 13:53:26 13:57:59 40° 98° (E) 14:02:31 437.325
JAS-2 02 Mar 14:30:47 14:31:46 11° 53° (NE) 14:33:07 435.910
Gurwin Techsat 1B 02 Mar 14:44:17 14:49:33 63° 259° (W) 14:54:51 435.225
HORYU 2 02 Mar 14:45:07 14:49:08 35° 70° (ENE) 14:53:12 437.375
ISS 02 Mar 14:53:06 14:55:53 26° 23° (NNE) 14:58:40 145.825
SWISSCUBE 02 Mar 14:55:21 14:59:56 44° 289° (WNW) 15:04:29 437.505
BEESAT 02 Mar 15:04:07 15:08:36 39° 290° (WNW) 15:13:02 436.000
YUBILEINY 02 Mar 15:08:15 15:13:27 19° 79° (E) 15:19:10 435.215
ITAMSAT 1 02 Mar 15:15:10 15:19:26 24° 267° (W) 15:23:37 435.822/435.867
KKS-1 02 Mar 15:19:59 15:24:25 64° 101° (E) 15:28:48 437.445
AO-7 02 Mar 15:25:39 15:33:51 65° 67° (ENE) 15:42:05 29.400- 29.500
STARS 02 Mar 15:27:07 15:31:23 48° 99° (E) 15:35:37 437.465
ITUPSAT 1 02 Mar 15:31:52 15:35:40 23° 294° (WNW) 15:39:21 437.325
JAS-2 02 Mar 16:10:15 16:15:39 70° 73° (ENE) 16:21:46 435.910
M-CUBED/EXP-1 PRIME 02 Mar 16:10:51 16:12:55 13° 96° (E) 16:15:16 437.505
AUBIESAT-1 02 Mar 16:13:15 16:15:05 13° 96° (E) 16:17:12 437.475
HORYU 2 02 Mar 16:22:31 16:25:57 21° 267° (W) 16:29:15 437.375
ISS 02 Mar 16:29:18 16:32:26 47° 221° (SW) 16:35:34 145.825
MOZHAYETS 4 02 Mar 16:30:19 16:33:27 18° 91° (E) 16:36:45
KKS-1 02 Mar 16:58:26 17:00:35 13° 297° (WNW) 17:02:33 437.445
YUBILEINY 02 Mar 17:00:29 17:09:14 87° 276° (W) 17:18:05 435.215
Cubesat XI-IV 02 Mar 17:00:52 17:04:52 22° 64° (ENE) 17:09:02 437.490
STARS 02 Mar 17:04:44 17:07:31 16° 295° (WNW) 17:10:09 437.465
CUTE-I 02 Mar 17:09:32 17:13:51 26° 66° (ENE) 17:18:18 437.470
AO-7 02 Mar 17:20:18 17:27:17 28° 267° (W) 17:34:01 29.400- 29.500
AIST 1 02 Mar 17:29:45 17:30:10 10° 65° (ENE) 17:30:52
VERMONT LUNAR 02 Mar 17:35:14 17:37:55 21° 152° (SSE) 17:40:38 437.305
PHONESAT 2.4 02 Mar 17:39:02 17:40:35 12° 147° (SSE) 17:42:13 2401.200-2431.200
M-CUBED/EXP-1 PRIME 02 Mar 17:43:57 17:48:08 60° 291° (WNW) 17:52:36 437.505
BEESAT 3 02 Mar 17:45:27 17:49:30 65° 120° (ESE) 17:53:37 437.485
AUBIESAT-1 02 Mar 17:46:04 17:50:16 63° 290° (WNW) 17:54:47 437.475
JAS-2 02 Mar 17:58:29 18:01:44 15° 275° (W) 18:04:51 435.910
MOZHAYETS 4 02 Mar 18:06:32 18:10:57 44° 288° (WNW) 18:15:21
AIST 2 02 Mar 18:07:33 18:11:25 36° 116° (ESE) 18:15:23 435.215
BEESAT 2 02 Mar 18:10:45 18:14:52 79° 303° (WNW) 18:19:03 435.950
CUBESAT XI-V 02 Mar 18:28:20 18:32:08 25° 93° (E) 18:36:01 437.345
STRAND 1 02 Mar 18:31:10 18:34:15 16° 90° (E) 18:37:33 437.568
Cubesat XI-IV 02 Mar 18:39:28 18:44:40 50° 261° (W) 18:49:54 437.490
CUTE-I 02 Mar 18:48:41 18:53:45 42° 262° (W) 18:58:50 437.470
HO-68 02 Mar 18:52:25 18:56:48 18° 56° (NE) 19:01:29 435.675
O/OREOS (USA 219) 02 Mar 19:01:03 19:05:08 31° 59° (ENE) 19:09:13 437.305
YUBILEINY 02 Mar 19:01:42 19:07:37 19° 301° (WNW) 19:13:09 435.215
AIST 1 02 Mar 19:04:05 19:08:31 73° 263° (W) 19:12:52
VERMONT LUNAR 02 Mar 19:12:02 19:15:29 62° 168° (SSE) 19:18:58 437.305
PHONESAT 2.4 02 Mar 19:15:03 19:18:32 44° 161° (SSE) 19:22:01 2401.200-2431.200
PRISM 02 Mar 19:15:28 19:19:43 79° 103° (ESE) 19:23:57 437.425
BRITE-PL 02 Mar 19:20:55 19:25:21 25° 68° (ENE) 19:29:45 437.365/2234.400
BEESAT 3 02 Mar 19:25:28 19:28:03 16° 319° (NW) 19:30:34 437.485
GOMX 1 02 Mar 19:27:09 19:30:44 19° 66° (ENE) 19:34:21 467.674
SEEDS 02 Mar 19:30:27 19:31:31 11° 64° (ENE) 19:32:50 437.485
CANX-2 02 Mar 19:32:06 19:34:31 15° 66° (ENE) 19:37:05 2200.000
AIST 2 02 Mar 19:46:32 19:50:08 25° 314° (NW) 19:53:43 435.215
CUTE 1.7 + AOD 2 02 Mar 19:49:52 19:53:02 22° 68° (ENE) 19:56:18 437.475
BEESAT 2 02 Mar 19:52:19 19:53:49 11° 323° (NW) 19:55:10 435.950
DOVE 4 02 Mar 20:01:39 20:05:50 27° 69° (ENE) 20:09:57 437.250
CUBESAT XI-V 02 Mar 20:05:24 20:09:40 34° 290° (WNW) 20:13:51 437.345
STRAND 1 02 Mar 20:08:51 20:13:56 59° 287° (WNW) 20:18:58 437.568
CINEMA 3 02 Mar 20:11:23 20:14:23 17° 67° (ENE) 20:17:29 145.822/145.860
Oscar 11 02 Mar 20:26:29 20:29:11 17° 66° (ENE) 20:32:02 145.826/435.025
CUBEBUG 2 02 Mar 20:32:50 20:35:21 15° 66° (ENE) 20:38:01 437.445
AAUSAT CUBESAT 2 02 Mar 20:33:08 20:36:57 38° 72° (ENE) 20:40:50 437.432
COMPASS 1 02 Mar 20:35:32 20:39:30 47° 73° (ENE) 20:43:31 437.405
HO-68 02 Mar 20:36:31 20:43:40 89° 74° (ENE) 20:50:53 435.675
O/OREOS (USA 219) 02 Mar 20:40:37 20:44:29 26° 256° (WSW) 20:48:14 437.305
VERMONT LUNAR 02 Mar 20:49:52 20:53:22 80° 185° (S) 20:56:51 437.305
DX 1 02 Mar 20:50:45 20:53:25 16° 65° (ENE) 20:56:13 434.975-435.025
PCSat 02 Mar 20:51:56 20:57:08 50° 114° (ESE) 21:02:24 145.827
PHONESAT 2.4 02 Mar 20:53:13 20:56:52 82° 178° (S) 21:00:31 2401.200-2431.200
BRITE-PL 02 Mar 20:58:09 21:03:37 47° 262° (W) 21:08:52 437.365/2234.400
SEEDS 02 Mar 21:02:42 21:06:51 68° 258° (WSW) 21:11:03 437.485
GOMX 1 02 Mar 21:03:10 21:08:31 58° 260° (W) 21:13:36 467.674
CANX-2 02 Mar 21:06:04 21:10:08 46° 261° (W) 21:14:13 2200.000
FUNcube-1 02 Mar 21:10:17 21:13:48 25° 69° (ENE) 21:17:19 145.935
ZACube-1 02 Mar 21:11:27 21:15:01 26° 70° (ENE) 21:18:37 437.345
GONETS M04 02 Mar 21:15:06 21:21:53 28° 84° (E) 21:28:56
HUMSAT D 02 Mar 21:16:06 21:18:24 15° 66° (ENE) 21:20:52 437.325/437.525
UKube-1 02 Mar 21:19:05 21:22:51 30° 69° (ENE) 21:26:40 .
CUTE 1.7 + AOD 2 02 Mar 21:25:02 21:28:50 31° 264° (W) 21:32:36 437.475
UWE-3 02 Mar 21:29:50 21:34:08 50° 74° (ENE) 21:38:21 435.000/436.395/437.385
DOVE 4 02 Mar 21:38:43 21:43:29 36° 263° (W) 21:48:02 437.250
DELFI C3 02 Mar 21:40:40 21:44:41 86° 78° (ENE) 21:48:45 145.870
CINEMA 3 02 Mar 21:46:38 21:51:19 51° 261° (W) 21:55:48 145.822/145.860
RS-15 02 Mar 21:47:37 21:52:41 15° 100° (E) 21:58:38 29.354- 29.394
Oscar 11 02 Mar 22:00:58 22:05:05 44° 262° (W) 22:09:12 145.826/435.025
CUBEBUG 2 02 Mar 22:07:19 22:11:45 52° 260° (W) 22:16:03 437.445
ANTELSAT 02 Mar 22:09:50 22:11:20 12° 89° (E) 22:13:06 437.575/2403.000
AAUSAT CUBESAT 2 02 Mar 22:10:03 22:12:50 17° 269° (W) 22:15:28 437.432
COMPASS 1 02 Mar 22:13:18 22:15:34 14° 271° (W) 22:17:37 437.405
DX 1 02 Mar 22:25:04 22:29:19 49° 260° (W) 22:33:37 434.975-435.025
VERMONT LUNAR 02 Mar 22:27:51 22:31:07 37° 201° (SSW) 22:34:22 437.305
HO-68 02 Mar 22:28:12 22:32:28 16° 273° (W) 22:36:19 435.675
AISAT 02 Mar 22:28:16 22:32:45 72° 75° (ENE) 22:37:16 437.250
POLYITAN 1 02 Mar 22:30:39 22:31:24 11° 88° (E) 22:32:25 437.675
POPSAT HIP 1 02 Mar 22:31:13 22:31:54 10° 88° (E) 22:32:51 437.405
PHONESAT 2.4 02 Mar 22:31:41 22:35:16 57° 195° (SSW) 22:38:50 2401.200-2431.200
CUBEBUG 1 02 Mar 22:32:12 22:36:08 33° 70° (ENE) 22:40:09 437.445
PCSat 02 Mar 22:36:20 22:40:52 26° 313° (NW) 22:45:20 145.827
VELOX 1 02 Mar 22:37:46 22:42:16 88° 70° (ENE) 22:46:47 145.980
50 SAT 02 Mar 22:46:07 22:50:06 75° 258° (WSW) 22:54:05 437.505
FUNcube-1 02 Mar 22:46:13 22:50:05 29° 265° (W) 22:53:48 145.935
ZACube-1 02 Mar 22:47:34 22:51:21 28° 265° (W) 22:55:03 437.345
HUMSAT D 02 Mar 22:49:48 22:53:52 47° 261° (W) 22:57:55 437.325/437.525
NANOSAT C BR1 02 Mar 22:52:24 22:55:25 19° 92° (E) 22:58:30 145.865
ESTCUBE 1 02 Mar 22:53:35 22:58:02 61° 74° (ENE) 23:02:32 437.505/2401.250
UKube-1 02 Mar 22:55:25 22:59:02 24° 266° (W) 23:02:34 .
SPROUT 02 Mar 23:05:11 23:08:10 19° 67° (ENE) 23:11:17 437.525
UNISAT 6 02 Mar 23:05:39 23:09:51 50° 99° (E) 23:14:05 437.425
UWE-3 02 Mar 23:08:25 23:11:00 15° 270° (W) 23:13:22 435.000/436.395/437.385
TISAT 1 02 Mar 23:08:52 23:11:48 19° 67° (ENE) 23:14:53 437.305
GONETS M04 02 Mar 23:09:34 23:18:11 63° 282° (WNW) 23:26:47
QB50P1 02 Mar 23:24:30 23:28:33 44° 99° (E) 23:32:35 145.935-145.965
QB50P2 02 Mar 23:28:19 23:32:27 50° 99° (E) 23:36:33 145.880/145.840
TIGRISAT 02 Mar 23:30:39 23:34:57 86° 284° (WNW) 23:39:17 435.000
BUGSAT 1 02 Mar 23:34:31 23:38:29 41° 98° (E) 23:42:22 437.445
DUCHIFAT 1 02 Mar 23:43:16 23:47:30 73° 102° (ESE) 23:51:41 145.980
ANTELSAT 02 Mar 23:44:22 23:48:37 59° 285° (WNW) 23:52:52 437.575/2403.000
RS-15 02 Mar 23:52:32 00:03:21 75° 118° (ESE) 00:14:21 29.354- 29.394
DANDE 03 Mar 00:02:43 00:09:02 40° 96° (E) 00:14:00 436.750
POLYITAN 1 03 Mar 00:03:40 00:07:52 63° 286° (WNW) 00:12:01 437.675
POPSAT HIP 1 03 Mar 00:04:08 00:08:20 64° 285° (WNW) 00:12:28 437.405
AISAT 03 Mar 00:08:54 00:09:58 11° 272° (W) 00:10:45 437.250
CUBEBUG 1 03 Mar 00:09:00 00:12:35 23° 267° (W) 00:16:06 437.445
PHONESAT 2.4 03 Mar 00:10:43 00:13:20 18° 210° (SSW) 00:15:53 2401.200-2431.200
SWISSCUBE 03 Mar 00:25:08 00:28:50 23° 67° (ENE) 00:32:39 437.505
NANOSAT C BR1 03 Mar 00:27:33 00:31:25 35° 289° (WNW) 00:35:13 145.865
CUSAT 1 03 Mar 00:31:43 00:38:10 84° 101° (E) 00:42:59 437.405
ESTCUBE 1 03 Mar 00:33:19 00:35:25 13° 272° (W) 00:37:17 437.505/2401.250
BEESAT 03 Mar 00:33:32 00:37:24 26° 68° (ENE) 00:41:23 436.000
SPROUT 03 Mar 00:39:56 00:44:01 39° 262° (W) 00:48:07 437.525
TISAT 1 03 Mar 00:43:21 00:47:23 39° 262° (W) 00:51:24 437.305
UNISAT 6 03 Mar 00:43:47 00:46:18 15° 294° (WNW) 00:48:41 437.425
SO-50 03 Mar 00:57:57 01:00:23 15° 109° (ESE) 01:03:04 436.795
ITUPSAT 1 03 Mar 01:00:13 01:04:46 46° 72° (ENE) 01:09:23 437.325
QB50P1 03 Mar 01:01:25 01:04:08 16° 294° (WNW) 01:06:41 145.935-145.965
QB50P2 03 Mar 01:05:33 01:08:00 15° 295° (WNW) 01:10:16 145.880/145.840
BUGSAT 1 03 Mar 01:10:57 01:13:40 17° 294° (WNW) 01:16:13 437.445
GONETS M04 03 Mar 01:14:06 01:17:21 12° 307° (NW) 01:19:58
DUCHIFAT 1 03 Mar 01:21:50 01:22:49 11° 297° (WNW) 01:23:34 145.980
